Flag for China Weather past 2 weeks in Shantou, Guangdong, China

Now
82 °F

Passing clouds.


Feels Like: 91 °F
Forecast: 81 / 90 °F
Wind: 3 mph from Northeast

Location: Shantou Airport

Current Time: Aug 28, 2014 at 5:11:18 AM

Latest Report: Aug 28, 2014 at 4:00 AM


Visibility: N/A

Pressure: 29.92 "Hg

Humidity: 84%

Dew point: 77 °F

Location of ShantouLocation

Historic Weather in Shantou — Graph

°F

Shantou temperature yesterday

Maximum temperature yesterday: 93 °F (at 1:00 PM)
Minimum temperature yesterday: 81 °F (at 3:00 AM)
Average temperature yesterday: 87 °F

Past Weeks' High & Low Weather Summary

 TemperatureHumidityPressure
High99 °F (Aug 17, 3:00 PM)100% (Aug 13, 4:00 AM)29.95 "Hg (Aug 13, 4:00 AM)
Low73 °F (Aug 19, 2:00 PM)47% (Aug 17, 3:00 PM)29.56 "Hg (Aug 13, 5:00 AM)
Average84 °F81%29.80 "Hg
* Reported Aug 13 3:00 AM — Aug 28 3:00 AM, Shantou, Weather by CustomWeather, © 2014

Note: Actual official high and low records may vary slightly from our data, if they occured in-between our weather recording intervals... More about our weather records

Advertising

Shantou weather history for previous 24 hours

 ConditionsComfort  
Time TempWeatherWind HumidityBarometerVisibility
3:00 AM
Aug 28
82 °FPassing clouds.3 mph84%29.92 "HgN/A
1:00 AM84 °FPassing clouds.3 mph79%29.92 "HgN/A
12:00 AM84 °FPassing clouds.6 mph79%29.95 "HgN/A
10:00 PM
Aug 27
86 °FPassing clouds.8 mph75%29.95 "HgN/A
9:00 PM86 °FPassing clouds.8 mph70%29.92 "HgN/A
8:00 PM86 °FPassing clouds.6 mph70%29.89 "HgN/A
7:00 PM88 °FPassing clouds.8 mph66%29.89 "HgN/A
6:00 PM90 °FPassing clouds.10 mph59%29.86 "HgN/A
5:00 PM91 °FPassing clouds.8 mph56%29.83 "HgN/A
4:00 PM93 °FScattered clouds.8 mph56%29.86 "HgN/A
3:00 PM93 °FScattered clouds.8 mph53%29.86 "HgN/A
2:00 PM93 °FScattered clouds.8 mph53%29.86 "HgN/A
1:00 PM93 °FPassing clouds.10 mph56%29.86 "HgN/A
12:00 PM91 °FScattered clouds.8 mph59%29.89 "HgN/A
11:00 AM90 °FScattered clouds.10 mph67%29.89 "HgN/A
10:00 AM88 °FScattered clouds.13 mph70%29.92 "HgN/A
9:00 AM86 °FPassing clouds.8 mph75%29.92 "HgN/A
8:00 AM84 °FPassing clouds.6 mph79%29.89 "HgN/A
7:00 AM81 °FClear.6 mph89%29.89 "Hg5 mi
6:00 AM81 °FClear.3 mph89%29.86 "Hg4 mi
5:00 AM81 °FPassing clouds.3 mph89%29.86 "HgN/A
Weather by CustomWeather, © 2014

See weather overviewHow to use our weather pages